Regional Weather Roundup
Issued by NWS

Home | Current Version | Previous Version | Text Only | Print | Product List | Glossary On
Versions: 1 2 3 4 5 6 7 8 9 10 11 12 13 14 15 16 17 18 19 20 21 22 23 24 25 26 27 28 29 30 31 32 33 34 35 36 37 38 39 40 41 42 43 44 45 46 47 48 49 50
000
ASUS43 KMKX 260521
RWRWI

WISCONSIN REGIONAL WEATHER ROUNDUP
NATIONAL WEATHER SERVICE MILWAUKEE/SULLIVAN WI
1200 AM CDT SUN APR 26 2015

NOTE: "FAIR" INDICATES FEW OR NO CLOUDS BELOW 12,000 FEET WITH NO
SIGNIFICANT WEATHER AND/OR OBSTRUCTIONS TO VISIBILITY.

WIZ001-002-006>008-014>016-023>028-260600-
NORTHWEST WISCONSIN

CITY           SKY/WX    TMP DP  RH WIND       PRES   REMARKS
SUPERIOR ARPT  FAIR      34  23  65 NE6       30.06S WCI  28
ASHLAND        CLEAR     28  23  81 NW3       30.06R
HAYWARD        CLEAR     32  23  69 CALM      30.02R
SIREN          CLEAR     38  20  49 NE6       30.03R WCI  33
CUMBERLAND     CLEAR     36  19  51 NE9       30.00R WCI  29
RICE LAKE      CLEAR     38  22  53 N7        30.01S WCI  32
CHETEK         CLEAR     42  20  41 N6        29.99R
LADYSMITH      CLEAR     38  24  59 N7        30.01R WCI  32
EAU CLAIRE     CLEAR     43  23  45 NE8       29.97R
MENOMONIE      CLEAR     43  22  44 N6        29.98R
NEW RICHMOND   CLEAR     41  22  47 NE10      29.99R
OSCEOLA        CLEAR     40  20  43 N5        30.02R
$$

WIZ003>005-009-010-017-018-260600-
NORTH CENTRAL WISCONSIN

CITY           SKY/WX    TMP DP  RH WIND       PRES   REMARKS
MANITOWISH WTR CLEAR     32  21  64 N3        30.00R
ARBOR VITAE    CLEAR     37  19  49 CALM      30.00R
WOODRUFF       CLEAR     37  19  49 CALM      30.00R
RHINELANDER    CLEAR     35  21  56 CALM      29.99R
EAGLE RIVER    CLEAR     31  18  57 CALM      29.99S
LAND O LAKES   CLEAR     31  18  57 NE3       30.00S
PHILLIPS       CLEAR     35  22  58 N5        29.99R WCI  31
TOMAHAWK       CLEAR     37  21  53 CALM      30.00R
MEDFORD        CLEAR     40  20  43 E3        29.97S
MERRILL        CLEAR     31  24  73 CALM      29.98S
$$

WIZ029-030-035-036-043>047-260600-
CENTRAL WISCONSIN

CITY           SKY/WX    TMP DP  RH WIND       PRES   REMARKS
WAUSAU         CLEAR     37  20  50 CALM      29.96R
MOSINEE        CLEAR     36  19  51 NE6       29.98R WCI  31
MARSHFIELD     CLEAR     40  20  44 NE5       29.96R
STEVENS POINT  CLEAR     30  18  61 N3        29.97R
WAUPACA        CLEAR     38  19  47 N3        29.97R
WAUTOMA        CLEAR     39  16  39 NE7       29.95R WCI  34
WISC RAPIDS    CLEAR     38  15  39 NE7       29.97R WCI  33
CAMP DOUGLAS   CLEAR     29  22  75 W1        29.94R
$$

WIZ011>013-019>022-031-037>040-048>050-260600-
NORTHEAST WISCONSIN

CITY           SKY/WX    TMP DP  RH WIND       PRES   REMARKS
ANTIGO         CLEAR     32  26  78 NE3       29.98R
SHAWANO        CLEAR     41  25  52 NE8       29.98R
OCONTO         CLEAR     36  22  58 N5        29.98R WCI  32
STURGEON BAY   CLEAR     36  23  60 NE10      29.99S WCI  28
GREEN BAY      CLEAR     42  29  59 NE13      29.96R
MANITOWOC      CLEAR     38  26  62 N9        29.94R WCI  31
APPLETON       CLEAR     39  23  52 NE8       29.95S WCI  34
CLINTONVILLE   CLEAR     37  21  52 NE6       29.97R WCI  33
OSHKOSH        CLEAR     43  25  49 NE13      29.94R
$$

WIZ032>034-041-042-053>061-260600-
SOUTHWEST WISCONSIN

CITY           SKY/WX    TMP DP  RH WIND       PRES   REMARKS
LA CROSSE      CLEAR     41  22  46 E3        29.95R
SPARTA         CLEAR     31  21  67 CALM      29.96R
VIROQUA        CLEAR     37  18  46 E7        29.93R WCI  31
BOSCOBEL       CLEAR     33  28  81 CALM      29.94R
PRAIRIE DU CHI CLEAR     36  30  80 CALM      29.93R
PLATTEVILLE    CLEAR     37  29  74 NE5       29.91R WCI  33
$$

WIZ056-057-062-063-064-067-068-260600-
SOUTH CENTRAL WISCONSIN

CITY           SKY/WX    TMP DP  RH WIND       PRES   REMARKS
REEDSBURG      CLEAR     40  11  31 NE5       29.93R
BARABOO/DELLS  CLEAR     38  11  32 NE8       29.93R WCI  32
LONE ROCK      CLEAR     37  24  59 CALM      29.93R
MINERAL POINT  CLEAR     43  23  45 NE6       29.91R
MADISON        CLEAR     38  25  59 N6        29.92R WCI  33
MIDDLETON      CLEAR     37  25  62 NE5       29.92R WCI  33
WATERTOWN      CLEAR     36  20  53 N3        29.90S
MONROE         CLEAR     37  23  56 N7        29.90R WCI  32
JANESVILLE     CLEAR     41  21  45 N8        29.88F
$$

WIZ051-052-058>065-066-070>072-260600-
SOUTHEAST WISCONSIN

CITY           SKY/WX    TMP DP  RH WIND       PRES   REMARKS
MILWAUKEE      CLEAR     41  26  55 N13G22    29.89R
WAUKESHA       CLEAR     36  21  55 N6        29.90S WCI  31
MILWAUKEE/TIMM PTCLDY    37  21  52 N7        29.89F WCI  32
RACINE         CLEAR     40  29  64 N13       29.90R WCI  32
BURLINGTON     CLEAR     35  22  58 N5        29.88S WCI  31
KENOSHA        CLEAR     39  28  64 N8        29.88R WCI  33
FOND DU LAC    CLEAR     40  22  48 NE13      29.93R WCI  32
SHEBOYGAN      CLEAR     38  24  57 N10       29.92R WCI  31
WEST BEND      CLEAR     37  21  52 N8        29.90S WCI  31
JUNEAU         CLEAR     37  22  54 N9        29.92S WCI  31
$$

LSZ147-162-260600-
LAKE SUPERIOR

STATION/POSITION TIME  TEMP    WIND        PRES    WAVE
                       AIR SEA DIR/SP/G            HT/PER
                 (UTC) (F)     (DEG/KT/KT) (MB)    (FT/S)
W MID LAKE BUOY  0450   35 34  360/  6/  8 1019.6R   1/ 4
DEVILS ISLAND    0500   36      20/  8/  9 1019.0R
PORT WING        0400   32      70/  1/  3 1018.3
SAXON HARBOR     0400   30        CALM     1016.9S
$$

LMZ867-665-643>646-260600-
LAKE MICHIGAN

STATION/POSITION TIME  TEMP    WIND        PRES    WAVE
                       AIR SEA DIR/SP/G            HT/PER
                 (UTC) (F)     (DEG/KT/KT) (MB)    (FT/S)
CHAMBERS ISLAND  0400   38     360/ 14/ 18 1015.2S
NORTHPORT PIER   0400   38     360/ 14/ 17 1015.2R
SISTER BAY       0432   37      10/  9/ 15   N/A
KEWAUNEE LAKESHO 0412   41      10/ 11/ 14 1013.2R
SHEBOYGAN LAKESH 0500   40      10/ 21/ 23 1014.0R
PORT WASHINGTON  0400   41     350/  5/ 10 1012.9
MILWAUKEE LAKESH 0500   42      10/ 16/ 19   N/A
KENOSHA   LAKESH 0500   42     360/ 14/ 20 1011.9R
$$

TC  - TEMPERATURE IN CELSIUS
VSB - VISIBILITY IN STATUTE MILES
WCI - WIND CHILL INDEX
HX  - HEAT INDEX



USA.gov is the U.S. government's official web portal to all federal, state and local government web resources and services.